Погода в Белой Холунице

Россия / Кировская область     58°50′36″N   50°51′09″E
темп.,
°C
ветер,
м/с
пор.,
м/с
влажн.,
%
обл.,
%
осадки,
мм/ч
давл.,
гПа
погр.,
м
26 февраля, пт
пт2600:00−22ююв3897100 0.1 1021294
03:00−23юв3997100 0.1 1022264
06:00−24юв3997100 0.0 1021286
09:00−22ююв4994100 0.0 1019343
12:00−18ююв5989100 0.0 1018520
15:00−16ююв51190100 0.1 1015631
18:00−17юв61491100 0.1 1012645
21:00−19юв61392100 0.1 1010578
27 февраля, сб
сб2700:00−18юв51391100 0.0 1007589
03:00−17вюв51293100 0.6 1006652
06:00−17вюв51094100 0.3 1005710
09:00−15вюв4989100 0.8 1006718
12:00−12в4785100 0.1 1006855
15:00−12всв4786100 0.2 1007791
18:00−14всв3895100 0.1 1008337
21:00−18св379772 0.1 1009164
28 февраля, вс
вс2800:00−20св37970 0.0 1010150
03:00−23св37970 0.0 1012139
06:00−24св37970 0.0 1013176
09:00−21св37920 0.0 1014285
12:00−16ссв368839 0.0 1014418
15:00−14ссв368970 0.0 1015424
18:00−18ссв239762 0.0 101664
21:00−20ссв239731 0.0 101920
1 марта, пн
пн100:00−21с12980 0.0 102020
03:00−22с12970 0.0 102220
06:00−22сз11970 0.0 102220
09:00−17з12900 0.0 1023174
12:00−12зюз23830 0.0 1022391
15:00−11зюз368824 0.0 1021428
18:00−14юз399773 0.0 1019234
21:00−14юз4109684 0.1 1017328
2 марта, вт
вт200:00−12юз51194100 0.1 1013506
03:00−10юз51194100 1.2 1009532
06:00−9юз41094100 1.3 1006520
09:00−7юз4994100 2.3 1004445
12:00−3юз3692100 0.4 1002438
15:00−1юз3593100 0.5 1001394
18:00−2зюз279897 0.6 1001296
21:00−5зсз389595 0.8 1002164